カタログに戻る

ARIANE 5 R/B

運用中HEO
NORAD 38993·ROCKET BODY·🇫🇷 France

打ち上げ Nov 10, 2012 から Guiana Space Centre

Loading…

次のパス (今後24時間)

TLE

最新Source: Space-Track

元期: Sep 14, 2026, 18:16 UTC

1 38993U 12062C   26257.76143133  .00012641  00000-0  14511-2 0  9991
2 38993   2.7056 336.5833 6931927 213.9487  70.3331  2.75129815126349

AllMySatでARIANE 5 R/Bをリアルタイム追跡

Download on the App Store